Home > Weather > Koudougou > Past weeks

Flag for Burkina Faso Weather for the Past 2 Weeks in Koudougou, Burkina Faso

Now
88 °F

Passing clouds.


Feels Like: 89 °F
Forecast: 79 / 105 °F
Wind: 5 mph from West

Location: Ouagadougou Airport

Current Time: May 3, 2016 at 1:47:17 AM

Latest Report: May 3, 2016 at 1:00 AM


Visibility: N/A

Pressure: 29.83 "Hg

Humidity: 46%

Dew Point: 64 °F

Location of KoudougouLocation

Historic Weather in Koudougou — Graph

°F

Koudougou Temperature Yesterday

Maximum temperature yesterday: 106 °F (at 3:00 PM)
Minimum temperature yesterday: 88 °F (at 6:00 AM)
Average temperature yesterday: 95 °F

High & Low Weather Summary for the Past Weeks

 TemperatureHumidityPressure
High109 °F (May 1, 3:00 PM)94% (Apr 27, 10:00 PM)29.98 "Hg (Apr 27, 10:00 PM)
Low75 °F (Apr 27, 10:00 PM)15% (Apr 20, 5:00 PM)29.68 "Hg (Apr 24, 4:00 PM)
Average95 °F41%29.82 "Hg
* Reported Midnight between Apr 17 and Apr 18 — Midnight between May 2 and May 3, Koudougou, Weather by CustomWeather, © 2016

Note: Actual official high and low records may vary slightly from our data, if they occured in-between our weather recording intervals... More about our weather records

Advertising

Koudougou Weather History for the Previous 24 Hours

Scroll right to see more
 ConditionsComfort  
Time TempWeatherWind HumidityBarometerVisibility
12:00 AM
Tue, May 3
90 °FPassing clouds.3 mph41%29.83 "HgN/A
11:00 PM
Mon, May 2
88 °FPassing clouds.7 mph49%29.83 "HgN/A
10:00 PM91 °FPassing clouds.7 mph41%29.80 "HgN/A
9:00 PM90 °FThunderstorms. Passing clouds.12 mph41%29.80 "HgN/A
8:00 PM90 °FThunderstorms. Passing clouds.17 mph43%29.80 "HgN/A
7:00 PM91 °FThunderstorms. Passing clouds.14 mph46%29.77 "HgN/A
5:00 PM106 °FPassing clouds.3 mph22%29.68 "HgN/A
4:00 PM106 °FPassing clouds.3 mph25%29.71 "HgN/A
3:00 PM106 °FPassing clouds.3 mph26%29.71 "HgN/A
2:00 PM104 °FPassing clouds.7 mph29%29.74 "HgN/A
1:00 PM104 °FPassing clouds.10 mph33%29.77 "HgN/A
12:00 PM102 °FPassing clouds.13 mph35%29.80 "HgN/A
11:00 AM100 °FPassing clouds.10 mph37%29.83 "HgN/A
10:00 AM97 °FSunny.13 mph39%29.86 "Hg10 mi
9:00 AM95 °FPassing clouds.13 mph44%29.86 "HgN/A
8:00 AM91 °FSunny.16 mph46%29.86 "Hg10 mi
7:00 AM90 °FSunny.10 mph49%29.83 "Hg10 mi
6:00 AM88 °FSunny.10 mph55%29.83 "Hg10 mi
5:00 AM90 °FClear.10 mph49%29.80 "Hg10 mi
4:00 AM90 °FClear.10 mph49%29.77 "Hg10 mi
3:00 AM90 °FClear.10 mph49%29.77 "Hg10 mi
2:00 AM90 °FClear.7 mph49%29.77 "Hg10 mi
1:00 AM91 °FClear.7 mph46%29.77 "Hg10 mi
Weather by CustomWeather, © 2016

See weather overviewHow to use our weather pages